{"data":{"norad_id":63987,"intl_designator":"2025-100F","name":"SCS-01 F","alt_names":[],"object_type":"PAYLOAD","status":"ACTIVE","operator":null,"country":"PRC","launch_date":"2025-05-14","launch_site_code":"JSC","launch_vehicle":null,"mission":null,"orbit_class":"UNKNOWN","rcs_meters":null,"size_class":null,"mass_kg":null,"dimensions":null,"purposes":[],"wikipedia_slug":null,"has_3d_model":false,"image_url":null,"decayed_at":null,"tle_current":{"epoch":"2026-09-21T21:43:44.011200Z","epoch_age_seconds":78304,"freshness":"FRESH","line1":"1 63987U 25100F   26264.90537050  .00007791  00000+0  35431-3 0  9992","line2":"2 63987  97.3558 335.4622 0006617 346.6678  13.4382 15.20983998 75330","mean_motion":15.20983998,"eccentricity":0.0006617,"inclination_deg":97.3558,"raan_deg":335.4622,"arg_perigee_deg":346.6678,"mean_anomaly_deg":13.4382,"bstar":0.00035431,"rev_number":7533,"period_min":94.675552267053,"perigee_km":498.3180786519,"apogee_km":507.42440495911,"semimajor_km":6881.0082418055,"source":"CELESTRAK","updated_at":"2026-09-22T09:00:29.478758Z"}}}